Location: Seattle
(47.6064°N, 122.3308°W)
Time: 00:09:21
(UTC-08:00)

A-11 Canister half - Pass Details

Date: 02 December 2020
Orbit: 1524 x 1684 km, 47.3° (Epoch: 27 January)

Event Time Altitude Azimuth Distance (km) Brightness Sun altitude
Rises 03:33:09 0° 199° (SSW) 4,915 - -40.4°
Reaches altitude 10° 03:36:50 10° 189° (S) 3,937 - -39.8°
Exits shadow 03:39:57 19° 175° (S) 3,244 10.6 -39.3°
Maximum altitude 03:45:06 30° 133° (SE) 2,699 10.4 -38.5°
Drops below altitude 10° 03:53:18 10° 78° (ENE) 3,925 11.9 -37.1°
Sets 03:56:56 0° 69° (ENE) 4,899 12.6 -36.5°
